Latest Weather Observations for Cape Sorell

IDT60801

Issued at 12:05 pm EDT Thursday 27 November 2014 (issued every 30 minutes, with the page automatically refreshed every 10 minutes)

About weather observations | Map of weather stations | Latest weather observations for TAS | Other Formats
Station Details ID: 097000 Name: CAPE SORELL Lat: -42.20 Lon: 145.17 Height: 19.3 m
Data from the previous 72 hours. | See also: Recent months at Cape Sorell
Date/Time
EDT
Temp
°C
App
Temp
°C
Dew
Point
Rel
Hum
%
Delta-T
°C
Wind Press
QNH
hPa
Press
MSL
hPa
Rain
since 9 am
mm
Dir
 
Spd
km/h
Gust
km/h
Spd
kts
Gust
kts
27/12:00pm 14.4 9.9 7.0 61 3.6 SSW 20 26 11 14 1026.3 1026.3 0.0
27/11:30am 13.1 8.5 6.7 65 3.1 SW 20 26 11 14 1026.4 1026.4 0.0
27/11:00am 14.2 9.1 7.5 64 3.3 SSW 24 30 13 16 1026.4 1026.4 0.0
27/10:30am 14.4 10.2 7.5 63 3.4 SW 19 22 10 12 1026.4 1026.4 0.0
27/10:00am 13.4 8.3 5.8 60 3.6 SSW 22 26 12 14 1026.4 1026.4 0.0
27/09:30am 12.8 7.3 5.7 62 3.3 SSW 24 28 13 15 1026.4 1026.4 0.0
27/09:00am 12.4 7.0 6.5 67 2.8 SW 24 30 13 16 1026.3 1026.3 0.0
27/08:30am 12.1 7.4 7.6 74 2.2 SW 22 28 12 15 1026.1 1026.1 0.0
27/08:00am 11.9 7.4 6.2 68 2.7 SW 19 22 10 12 1025.9 1025.9 0.0
27/07:30am 11.9 7.5 4.9 62 3.2 SSW 17 22 9 12 1025.4 1025.4 0.0
27/07:00am 11.4 7.5 5.3 66 2.8 SSW 15 20 8 11 1025.0 1025.0 0.0
27/06:30am 11.2 6.4 5.7 69 2.5 SSW 20 26 11 14 1024.8 1024.8 0.0
27/06:00am 11.0 6.0 6.4 73 2.1 SSW 22 28 12 15 1024.6 1024.6 0.0
27/05:30am 11.3 6.3 6.6 73 2.2 SSW 22 32 12 17 1024.4 1024.4 0.0
27/05:00am 11.1 8.4 5.4 68 2.6 S 9 13 5 7 1024.2 1024.2 0.0
27/04:30am 11.2 6.7 6.1 71 2.4 S 19 22 10 12 1024.0 1024.0 0.0
27/04:00am 10.9 6.4 6.1 72 2.2 SW 19 24 10 13 1023.8 1023.8 0.0
27/03:30am 11.1 6.4 6.0 71 2.4 SW 20 26 11 14 1023.7 1023.7 0.0
27/03:00am 10.9 6.7 5.9 71 2.3 S 17 19 9 10 1023.8 1023.8 0.0
27/02:30am 11.0 4.7 5.7 70 2.4 SSW 28 33 15 18 1023.6 1023.6 0.0
27/02:00am 11.1 4.9 6.3 72 2.2 SSW 28 32 15 17 1023.5 1023.5 0.0
27/01:30am 11.3 5.0 5.8 69 2.6 SSW 28 33 15 18 1023.5 1023.5 0.0
27/01:00am 11.4 4.5 6.5 72 2.3 SSW 32 35 17 19 1023.5 1023.5 0.0
27/12:30am 11.7 6.6 6.0 68 2.7 SSW 22 30 12 16 1023.8 1023.8 0.0
27/12:00am 11.6 6.1 5.9 68 2.6 SSW 24 33 13 18 1023.7 1023.7 0.0
 
Date/Time
EDT
Temp
°C
App
Temp
°C
Dew
Point
Rel
Hum
%
Delta-T
°C
Wind Press
QNH
hPa
Press
MSL
hPa
Rain
since 9 am
mm
Dir
 
Spd
km/h
Gust
km/h
Spd
kts
Gust
kts
26/11:30pm 11.7 5.4 5.8 67 2.7 SSW 28 33 15 18 1023.6 1023.6 0.0
26/11:00pm 11.7 6.4 6.8 72 2.3 SSW 24 32 13 17 1023.6 1023.6 0.0
26/10:30pm 11.8 5.9 7.5 75 2.1 SSW 28 32 15 17 1023.5 1023.5 0.0
26/10:00pm 11.6 6.2 7.9 78 1.8 SW 26 33 14 18 1023.4 1023.4 0.0
26/09:30pm 11.8 6.4 7.9 77 1.9 SSW 26 32 14 17 1023.1 1023.1 0.0
26/09:00pm 11.8 5.6 7.7 76 2.0 SW 30 35 16 19 1022.7 1022.7 0.0
26/08:30pm 11.6 6.4 7.1 74 2.2 SW 24 28 13 15 1022.6 1022.6 0.0
26/08:00pm 11.8 5.5 7.3 74 2.2 SW 30 35 16 19 1022.4 1022.4 0.0
26/07:30pm 12.1 6.3 7.8 75 2.1 SW 28 35 15 19 1021.9 1021.9 0.0
26/07:00pm 12.4 6.5 7.5 72 2.4 SW 28 33 15 18 1021.8 1021.8 0.0
26/06:30pm 12.6 6.7 7.3 70 2.6 SSW 28 37 15 20 1021.4 1021.4 0.0
26/06:00pm 12.6 5.9 7.3 70 2.6 SW 32 37 17 20 1021.0 1021.0 0.0
26/05:30pm 12.8 6.5 7.3 69 2.7 SSW 30 35 16 19 1020.8 1020.8 0.0
26/05:00pm 13.3 6.6 7.3 67 2.9 SW 32 37 17 20 1020.8 1020.8 0.0
26/04:30pm 14.6 9.1 7.6 63 3.5 SW 26 33 14 18 1020.6 1020.6 0.0
26/04:00pm 13.8 6.9 7.3 65 3.2 SW 33 39 18 21 1020.4 1020.4 0.0
26/03:30pm 14.4 8.3 8.4 67 3.0 SW 30 35 16 19 1020.3 1020.3 0.0
26/03:00pm 13.5 7.7 7.9 69 2.8 SW 28 33 15 18 1020.2 1020.2 0.0
26/02:30pm 14.6 8.8 9.4 71 2.7 SSW 30 37 16 20 1019.9 1019.9 0.0
26/02:00pm 12.3 6.3 8.6 78 1.8 WSW 30 35 16 19 1019.8 1019.8 0.0
26/01:30pm 13.9 7.3 7.7 66 3.1 SW 32 39 17 21 1019.5 1019.5 0.0
26/01:00pm 14.1 7.5 8.5 69 2.8 SW 33 41 18 22 1019.4 1019.4 0.0
26/12:30pm 13.9 6.9 8.5 70 2.7 SW 35 43 19 23 1019.1 1019.1 0.0
26/12:00pm 13.4 6.3 8.0 70 2.7 SW 35 41 19 22 1018.7 1018.7 0.0
26/11:30am 12.9 6.9 8.6 75 2.1 SW 30 35 16 19 1018.6 1018.6 0.0
26/11:00am 11.3 2.2 8.3 82 1.5 SW 46 52 25 28 1018.1 1018.1 0.0
26/10:51am 12.8 6.3 8.3 74 2.2 SW 32 52 17 28 1018.1 1018.1 0.0
26/10:30am 13.2 7.4 9.3 77 2.0 SW 30 35 16 19 1018.1 1018.1 0.0
26/10:00am 11.7 4.8 8.7 82 1.5 SW 35 46 19 25 1017.7 1017.7 0.0
26/09:30am 11.2 5.7 9.1 87 1.0 SW 28 35 15 19 1017.7 1017.7 0.0
26/09:00am 11.8 5.5 7.3 74 2.2 WSW 30 35 16 19 1017.3 1017.3 3.6
26/08:30am 12.1 5.4 7.4 73 2.3 SW 32 41 17 22 1016.8 1016.8 3.6
26/08:00am 11.8 5.5 8.8 82 1.5 SW 32 39 17 21 1016.4 1016.4 3.6
26/07:30am 11.4 4.7 9.7 89 0.9 SW 35 44 19 24 1016.1 1016.1 3.6
26/07:00am 11.0 4.1 8.9 87 1.0 WSW 35 48 19 26 1015.8 1015.8 3.6
26/06:30am 10.9 5.3 8.8 87 1.0 WSW 28 37 15 20 1015.2 1015.3 3.6
26/06:00am 11.1 5.3 9.4 89 0.9 WSW 30 41 16 22 1014.8 1014.8 3.6
26/05:30am 11.3 5.1 10.0 92 0.7 SW 33 41 18 22 1014.6 1014.6 3.6
26/05:00am 11.3 5.4 10.4 94 0.5 WSW 32 39 17 21 1014.1 1014.1 3.6
26/04:30am 10.8 5.2 10.3 97 0.3 SW 30 43 16 23 1013.8 1013.8 3.6
26/04:00am 11.0 5.2 10.8 99 0.1 WSW 32 43 17 23 1013.5 1013.5 3.6
26/03:30am 11.2 5.3 11.2 100 0.0 WSW 33 39 18 21 1013.2 1013.2 3.6
26/03:00am 11.0 5.6 11.0 100 0.0 WSW 30 37 16 20 1013.1 1013.1 3.6
26/02:30am 10.7 3.2 10.7 100 0.0 WSW 41 50 22 27 1013.0 1013.0 3.4
26/02:00am 11.6 5.1 11.6 100 0.0 WSW 37 48 20 26 1013.0 1013.0 2.2
26/01:56am 12.6 6.4 12.6 100 0.0 WSW 37 48 20 26 1012.9 1012.9 2.0
26/01:30am 12.3 5.2 12.3 100 0.0 WNW 41 56 22 30 1012.8 1012.8 1.8
26/01:00am 12.2 5.1 12.2 100 0.0 WNW 41 50 22 27 1013.1 1013.1 1.8
26/12:30am 12.1 5.3 12.1 100 0.0 WNW 39 50 21 27 1013.5 1013.5 1.8
26/12:00am 11.9 5.1 11.9 100 0.0 WNW 39 54 21 29 1013.6 1013.6 1.6
 
Date/Time
EDT
Temp
°C
App
Temp
°C
Dew
Point
Rel
Hum
%
Delta-T
°C
Wind Press
QNH
hPa
Press
MSL
hPa
Rain
since 9 am
mm
Dir
 
Spd
km/h
Gust
km/h
Spd
kts
Gust
kts
25/11:51pm 11.9 6.2 11.9 100 0.0 WNW 33 54 18 29 1013.8 1013.8 1.6
25/11:30pm 11.7 5.1 11.5 99 0.1 WNW 37 50 20 27 1014.0 1014.0 1.6
25/11:06pm 11.6 4.6 11.4 99 0.1 WNW 39 59 21 32 1013.8 1013.8 1.6
25/11:00pm 11.6 5.4 11.4 99 0.1 WNW 35 46 19 25 1014.0 1014.0 1.4
25/10:30pm 11.6 3.9 10.3 92 0.7 WNW 41 56 22 30 1014.4 1014.4 1.0
25/10:04pm 12.0 6.2 9.6 85 1.2 WNW 30 50 16 27 1014.4 1014.4 0.8
25/10:00pm 12.1 6.8 9.7 85 1.2 WNW 28 37 15 20 1014.5 1014.5 0.6
25/09:30pm 12.4 6.2 9.2 81 1.6 WNW 32 44 17 24 1014.5 1014.5 0.6
25/09:00pm 12.4 6.2 9.2 81 1.6 WNW 32 44 17 24 1014.4 1014.4 0.6
25/08:30pm 12.2 5.9 9.0 81 1.6 W 32 41 17 22 1014.4 1014.4 0.6
25/08:00pm 11.6 4.9 8.3 80 1.6 WNW 33 44 18 24 1014.4 1014.4 0.6
25/07:30pm 12.5 7.2 8.4 76 2.0 W 26 39 14 21 1014.2 1014.2 0.6
25/07:00pm 12.6 7.3 8.3 75 2.1 W 26 37 14 20 1014.1 1014.1 0.6
25/06:30pm 12.6 7.4 8.7 77 1.9 W 26 39 14 21 1013.9 1013.9 0.6
25/06:00pm 12.4 7.2 8.7 78 1.8 W 26 37 14 20 1013.7 1013.7 0.6
25/05:30pm 11.5 6.3 8.7 83 1.4 WNW 26 35 14 19 1014.0 1014.0 0.6
25/05:00pm 12.4 5.8 8.7 78 1.8 WSW 33 43 18 23 1013.6 1013.6 0.6
25/04:30pm 13.1 6.3 7.8 70 2.6 W 33 43 18 23 1013.4 1013.4 0.6
25/04:00pm 14.1 8.5 8.7 70 2.7 W 28 39 15 21 1013.4 1013.4 0.6
25/03:30pm 13.9 6.9 8.5 70 2.7 W 35 46 19 25 1013.0 1013.0 0.6
25/03:00pm 13.5 6.5 8.6 72 2.5 W 35 48 19 26 1013.0 1013.0 0.6
25/02:30pm 13.7 8.1 10.1 79 1.9 W 30 43 16 23 1012.8 1012.8 0.6
25/02:00pm 12.5 5.0 9.5 82 1.5 WSW 39 50 21 27 1012.6 1012.6 0.6
25/01:30pm 13.0 6.5 10.2 83 1.4 W 35 54 19 29 1012.4 1012.4 0.6
25/01:23pm 14.0 8.5 11.9 87 1.1 W 32 54 17 29 1012.1 1012.1 0.6
25/01:00pm 13.0 7.5 11.9 93 0.6 WSW 32 41 17 22 1012.0 1012.0 0.6
25/12:30pm 11.8 4.5 10.2 90 0.8 WSW 39 59 21 32 1011.6 1011.6 0.6
25/12:26pm 12.9 7.3 11.5 91 0.7 WSW 32 59 17 32 1011.7 1011.7 0.6
25/12:00pm 12.6 7.0 12.0 96 0.3 WSW 33 43 18 23 1011.8 1011.8 0.6
25/11:30am 12.7 7.1 10.1 84 1.3 W 30 41 16 22 1011.6 1011.6 0.2
25/11:00am 12.9 8.8 11.3 90 0.8 WSW 24 32 13 17 1011.6 1011.6 0.2
25/10:30am 12.6 9.3 11.7 94 0.5 WSW 20 28 11 15 1011.6 1011.6 0.2
25/10:00am 12.5 6.3 9.9 84 1.3 WSW 33 46 18 25 1011.2 1011.2 0.0
25/09:30am 13.5 7.2 9.0 74 2.3 WSW 32 39 17 21 1010.8 1010.8 0.0
25/09:00am 12.8 6.2 8.7 76 2.1 WSW 33 43 18 23 1010.3 1010.3 12.6
25/08:30am 12.5 5.3 9.0 79 1.8 WSW 37 46 20 25 1009.8 1009.8 12.6
25/08:00am 12.3 5.4 9.0 80 1.7 WSW 35 44 19 24 1009.5 1009.5 12.6
25/07:30am 12.0 4.9 8.1 77 1.9 WSW 35 43 19 23 1009.0 1009.0 12.6
25/07:00am 12.1 4.1 8.9 81 1.6 WSW 41 50 22 27 1008.5 1008.5 12.6
25/06:30am 11.8 3.3 8.6 81 1.6 WSW 43 50 23 27 1008.1 1008.1 12.6
25/06:00am 11.7 3.7 8.9 83 1.4 WSW 41 52 22 28 1007.7 1007.7 12.6
25/05:30am 11.7 2.9 9.4 86 1.2 WSW 46 54 25 29 1006.8 1006.8 12.6
25/05:00am 11.6 3.5 10.7 94 0.5 WSW 44 52 24 28 1006.6 1006.6 12.6
25/04:30am 11.3 3.4 10.8 97 0.3 WSW 43 54 23 29 1006.0 1006.0 12.6
25/04:00am 11.0 3.9 10.8 99 0.1 WSW 39 54 21 29 1005.6 1005.6 12.6
25/03:48am 11.6 5.4 11.4 99 0.1 W 35 54 19 29 1005.7 1005.7 12.6
25/03:30am 11.5 5.6 11.3 99 0.1 W 33 44 18 24 1005.6 1005.6 12.6
25/03:00am 10.9 3.4 10.7 99 0.1 WSW 41 56 22 30 1005.7 1005.7 12.6
25/02:30am 11.5 6.2 11.3 99 0.1 W 30 41 16 22 1005.6 1005.6 12.4
25/02:00am 11.4 5.1 11.2 99 0.1 W 35 46 19 25 1005.5 1005.5 12.4
25/01:36am 11.5 6.2 11.3 99 0.1 W 30 50 16 27 1005.2 1005.2 12.0
25/01:30am 11.7 6.5 11.5 99 0.1 W 30 43 16 23 1005.4 1005.4 12.0
25/01:00am 11.2 4.5 11.0 99 0.1 W 37 50 20 27 1005.3 1005.3 12.0
25/12:47am 10.9 3.7 10.7 99 0.1 W 39 52 21 28 1005.1 1005.1 12.0
25/12:40am 11.5 5.8 11.2 98 0.2 WNW 32 52 17 28 1005.4 1005.4 10.0
25/12:30am 11.2 5.4 10.7 97 0.3 WNW 32 43 17 23 1005.4 1005.4 9.8
25/12:03am 11.8 5.3 10.5 92 0.7 WNW 35 56 19 30 1005.4 1005.4 8.0
25/12:00am 11.8 5.7 10.5 92 0.7 WNW 33 44 18 24 1005.4 1005.4 8.0
 
Date/Time
EDT
Temp
°C
App
Temp
°C
Dew
Point
Rel
Hum
%
Delta-T
°C
Wind Press
QNH
hPa
Press
MSL
hPa
Rain
since 9 am
mm
Dir
 
Spd
km/h
Gust
km/h
Spd
kts
Gust
kts
24/11:30pm 11.5 4.5 10.1 91 0.7 WNW 37 46 20 25 1005.5 1005.5 7.8
24/11:00pm 11.4 3.9 9.3 87 1.1 WNW 39 59 21 32 1005.7 1005.7 7.8
24/10:52pm 12.5 6.4 9.9 84 1.3 WNW 32 50 17 27 1005.7 1005.7 7.4
24/10:30pm 12.2 5.1 9.4 83 1.4 WNW 37 44 20 24 1005.7 1005.7 7.4
24/10:00pm 12.3 6.5 9.5 83 1.4 WNW 30 44 16 24 1005.8 1005.8 7.4
24/09:30pm 12.3 5.9 9.5 83 1.4 W 33 43 18 23 1005.8 1005.8 7.4
24/09:00pm 12.3 6.2 9.7 84 1.3 W 32 43 17 23 1005.5 1005.5 7.4
24/08:30pm 12.2 6.1 9.9 86 1.2 W 32 43 17 23 1005.3 1005.3 7.4
24/08:00pm 12.4 6.3 10.6 89 0.9 W 33 44 18 24 1004.8 1004.8 7.4
24/07:30pm 12.8 8.3 11.5 92 0.7 WNW 26 37 14 20 1004.6 1004.6 7.4
24/07:00pm 12.9 9.9 12.6 98 0.2 NW 20 33 11 18 1004.5 1004.5 7.4
24/06:30pm 12.9 9.6 12.9 100 0.0 NNW 22 28 12 15 1004.4 1004.4 7.4
24/06:00pm 13.3 10.7 13.3 100 0.0 NW 19 26 10 14 1004.5 1004.5 7.4
24/05:30pm 12.1 9.0 12.1 100 0.0 NW 20 30 11 16 1004.7 1004.7 7.4
24/05:00pm 11.6 8.5 11.6 100 0.0 WNW 19 24 10 13 1004.4 1004.4 7.4
24/04:30pm 11.4 8.0 11.4 100 0.0 WNW 20 32 11 17 1004.5 1004.5 7.4
24/04:00pm 11.3 7.9 11.3 100 0.0 W 20 32 11 17 1004.6 1004.6 7.2
24/03:30pm 11.5 7.0 11.5 100 0.0 W 26 37 14 20 1004.5 1004.5 6.8
24/03:00pm 12.7 6.9 12.7 100 0.0 N 35 46 19 25 1004.5 1004.5 5.2
24/02:30pm 12.8 6.3 12.8 100 0.0 N 39 46 21 25 1004.6 1004.6 4.6
24/02:00pm 13.0 7.6 12.8 99 0.1 N 33 39 18 21 1005.1 1005.1 4.0
24/01:30pm 13.5 10.8 13.0 97 0.3 NNW 19 26 10 14 1005.5 1005.5 3.6
24/01:00pm 13.8 11.0 13.3 97 0.3 N 20 26 11 14 1005.6 1005.6 3.2
24/12:30pm 13.4 9.4 13.1 98 0.2 N 26 30 14 16 1005.9 1005.9 3.2

Other Formats:

Comma delimited format used in spreadsheet applications
http://www.bom.gov.au/fwo/IDT60801/IDT60801.94974.axf

JavaScript Object Notation format (JSON) in row-major order
http://www.bom.gov.au/fwo/IDT60801/IDT60801.94974.json